Погода в Холмске

Россия / Сахалинская область     47°02′27″N   142°02′29″E
темп.,
°C
ветер,
м/с
пор.,
м/с
влажн.,
%
обл.,
%
осадки,
мм/ч
давл.,
гПа
погр.,
м
18 января, пн
пн1823:00−13в2372100 0.1 1014267
02:00−13вюв2371100 0.0 1014218
05:00−13в4770100 0.0 1013323
08:00−13в4976100 0.1 1012479
11:00−14в51179100 0.1 1011631
14:00−12в5985100 0.3 1011576
17:00−13всв5791100 0.9 1010472
20:00−16всв4691100 0.4 1010290
19 января, вт
вт1923:00−16в2389100 0.5 1010197
02:00−17в238739 0.0 1010137
05:00−17в338951 0.0 1009150
08:00−18в469044 0.0 1009218
11:00−17в257861 0.0 1011344
14:00−13св355666 0.0 1012663
17:00−13с355735 0.0 10131227
20:00−13ссз468893 0.6 1015803
20 января, ср
ср2023:00−12зсз686896 1.4 10161382
02:00−12сз7988100 0.4 10171081
05:00−12сз7880100 1.3 10171073
08:00−13сз7885100 0.8 1018980
11:00−12сз7882100 1.3 10191215
14:00−11сз6773100 0.3 10201377
17:00−11зсз6766100 0.4 10201188
20:00−11зсз476697 0.0 1022617
21 января, чт
чт2123:00−12зсз246769 0.0 1022532
02:00−11зюз246898 0.0 1021514
05:00−8юз467499 0.0 1019567
08:00−8ююз3577100 0.0 1017508
11:00−7зюз3592100 0.8 1017401
14:00−5зсз7970100 0.4 10161157
17:00−5зсз7969100 0.4 10161043
20:00−7зсз357392 0.0 1017461
22 января, пт
пт2223:00−7ю037090 0.0 1016410
02:00−8юв338092 0.0 101593
05:00−9вюв448396 0.0 101385
08:00−9вюв4788100 0.1 1010213
11:00−8вюв51183100 0.1 1009315
14:00−7в51183100 0.1 1007423
17:00−10всв4789100 0.8 1006365
20:00−13св4794100 0.8 1007346